Le nostre stazioni meteo in Italia

Pubblicità
Il mio iltempo24.it
Panocchia, Italia (16131): Temperatura: 19.05.2019 08:00:00 - 25.05.2019 08:00:00 (CEST)Panocchia, Italia (16131): velocità del vento: 19.05.2019 08:00:00 - 25.05.2019 08:00:00 (CEST)Panocchia, Italia (16131): direzione del vento: 19.05.2019 08:00:00 - 25.05.2019 08:00:00 (CEST)Panocchia, Italia (16131): reduced air pressure: 19.05.2019 08:00:00 - 25.05.2019 08:00:00 (CEST)
Data & Tempo tt [°C] ff [km/h] ff [kn] dd ppp [hPa]
25.05.2019 08:00:00 - - - - -
25.05.2019 07:00:00 14,4 5 3 O 1013,8
25.05.2019 06:00:00 12,9 - - - 1013,4
25.05.2019 05:00:00 13,3 11 6 OSO 1012,9
25.05.2019 04:00:00 13,6 10 5 OSO 1012,8
25.05.2019 03:00:00 13,8 11 6 OSO 1012,7
25.05.2019 02:00:00 14,5 8 5 OSO 1013,1
25.05.2019 01:00:00 - - - - -
25.05.2019 00:00:00 16,5 14 7 OSO 1012,6
24.05.2019 23:00:00 17,2 15 8 OSO 1012,4
24.05.2019 22:00:00 17,5 11 6 OSO 1012,2
24.05.2019 21:00:00 18,3 - - - 1011,7
24.05.2019 20:00:00 21,1 5 3 O 1011,2
24.05.2019 19:00:00 23,3 6 3 NO 1010,8
24.05.2019 18:00:00 - - - - -
24.05.2019 17:00:00 22,9 6 3 S 1011,4
24.05.2019 16:00:00 25,3 6 3 E 1011,6
24.05.2019 15:00:00 24,5 7 4 ENE 1012,1
24.05.2019 14:00:00 23,7 6 4 NNE 1012,5
24.05.2019 13:00:00 23,4 6 3 N 1013,2
24.05.2019 12:00:00 22,6 6 3 NNE 1013,6
24.05.2019 11:00:00 21,5 8 4 N 1013,9
24.05.2019 10:00:00 21,0 6 3 N 1014,1
24.05.2019 09:00:00 19,8 6 3 N 1014,0
24.05.2019 08:00:00 17,2 10 5 SO 1014,1
24.05.2019 07:00:00 13,9 15 8 OSO 1014,1
24.05.2019 06:00:00 12,2 13 7 OSO 1014,2
24.05.2019 05:00:00 12,8 8 4 OSO 1014,0
24.05.2019 04:00:00 13,7 13 7 OSO 1014,0
24.05.2019 03:00:00 14,6 17 9 OSO 1013,9
24.05.2019 02:00:00 14,9 18 10 OSO 1014,2
24.05.2019 01:00:00 14,9 16 8 OSO 1014,4
24.05.2019 00:00:00 16,0 15 8 OSO 1014,3
23.05.2019 23:00:00 16,9 16 8 SO 1014,0
23.05.2019 22:00:00 15,7 10 5 OSO 1014,0
23.05.2019 21:00:00 18,4 4 2 S 1013,4
23.05.2019 20:00:00 22,9 2 1 SSO 1012,7
23.05.2019 19:00:00 23,3 7 4 S 1012,9
23.05.2019 18:00:00 24,7 8 5 SO 1013,1
23.05.2019 17:00:00 25,7 5 3 NNO 1013,3
23.05.2019 16:00:00 24,4 8 4 E 1013,8
23.05.2019 15:00:00 24,0 6 3 E 1014,3
23.05.2019 14:00:00 23,5 6 4 NE 1014,8
23.05.2019 13:00:00 22,7 8 4 NE 1015,4
23.05.2019 12:00:00 22,3 5 3 N 1016,0
23.05.2019 11:00:00 21,0 5 3 NNE 1016,3
23.05.2019 10:00:00 20,5 5 3 NNE 1016,2
23.05.2019 09:00:00 20,0 4 2 N 1016,2
23.05.2019 08:00:00 15,6 9 5 OSO 1016,4
23.05.2019 07:00:00 13,0 14 8 SO 1016,6
23.05.2019 06:00:00 12,5 13 7 OSO 1016,4
23.05.2019 05:00:00 12,9 9 5 OSO 1016,4
23.05.2019 04:00:00 12,9 10 5 SO 1016,4
23.05.2019 03:00:00 12,6 10 5 OSO 1016,2
23.05.2019 02:00:00 12,3 11 6 SO 1016,3
23.05.2019 01:00:00 13,2 4 2 S 1016,3
23.05.2019 00:00:00 13,8 18 10 OSO 1015,4
22.05.2019 23:00:00 14,8 20 11 OSO 1015,0
22.05.2019 22:00:00 15,0 16 9 OSO 1014,9
22.05.2019 21:00:00 15,1 16 8 SO 1014,2
22.05.2019 20:00:00 17,4 10 5 SO 1013,5
22.05.2019 19:00:00 18,8 10 5 OSO 1013,3
22.05.2019 18:00:00 17,0 14 8 OSO 1013,5
22.05.2019 17:00:00 15,1 16 9 SO 1013,8
22.05.2019 16:00:00 16,0 13 7 O 1014,1
22.05.2019 15:00:00 22,0 8 4 E 1013,1
22.05.2019 14:00:00 23,7 8 4 NNE 1013,1
22.05.2019 13:00:00 22,5 - - - -
22.05.2019 12:00:00 21,8 - - - -
22.05.2019 11:00:00 20,6 6 3 E 1014,1
22.05.2019 10:00:00 18,8 7 4 E 1014,3
22.05.2019 09:00:00 17,3 - - - -
22.05.2019 08:00:00 14,7 3 1 ENE 1014,2
22.05.2019 07:00:00 13,5 7 4 OSO 1014,0
22.05.2019 06:00:00 12,2 8 5 O 1013,9
22.05.2019 05:00:00 14,2 12 7 O 1013,3
22.05.2019 04:00:00 14,6 7 4 O 1013,1
22.05.2019 03:00:00 14,4 9 5 NO 1012,9
22.05.2019 02:00:00 14,6 2 1 O 1012,4
22.05.2019 01:00:00 14,2 9 5 OSO 1012,5
22.05.2019 00:00:00 12,3 8 5 O 1013,3
21.05.2019 23:00:00 13,6 4 2 ONO 1013,1
21.05.2019 22:00:00 13,6 7 4 SSE 1012,7
21.05.2019 21:00:00 17,7 12 7 O 1011,1
21.05.2019 20:00:00 19,4 3 2 SO 1009,7
21.05.2019 19:00:00 22,6 11 6 O 1008,7
21.05.2019 18:00:00 23,4 15 8 O 1008,8
21.05.2019 17:00:00 24,4 14 7 O 1008,6
21.05.2019 16:00:00 24,5 16 9 O 1008,6
21.05.2019 15:00:00 23,9 19 11 O 1008,6
21.05.2019 14:00:00 24,0 18 10 ONO 1008,2
21.05.2019 13:00:00 23,5 16 9 ONO 1008,0
21.05.2019 12:00:00 23,3 16 9 O 1007,8
21.05.2019 11:00:00 20,9 7 4 ENE 1007,9
21.05.2019 10:00:00 19,3 3 2 N 1008,0
21.05.2019 09:00:00 16,9 3 1 NE 1008,0
21.05.2019 08:00:00 14,1 - - - 1007,8
21.05.2019 07:00:00 11,8 5 3 SSE 1007,7
21.05.2019 06:00:00 11,4 - - - 1007,4
21.05.2019 05:00:00 12,1 6 3 S 1007,0
21.05.2019 04:00:00 12,4 4 2 SE 1007,2
21.05.2019 03:00:00 12,7 5 3 E 1007,3
21.05.2019 02:00:00 13,6 3 2 SSO 1007,2
21.05.2019 01:00:00 13,9 8 4 OSO 1007,1
21.05.2019 00:00:00 12,9 - - - 1007,5
20.05.2019 23:00:00 13,8 7 4 O 1007,3
20.05.2019 22:00:00 13,6 7 4 OSO 1007,0
20.05.2019 21:00:00 14,3 6 3 SO 1006,7
20.05.2019 20:00:00 14,7 2 1 ESE 1006,4
20.05.2019 19:00:00 16,2 7 4 SO 1006,2
20.05.2019 18:00:00 16,5 12 6 O 1006,2
20.05.2019 17:00:00 18,0 14 8 ONO 1005,8
20.05.2019 16:00:00 18,1 8 4 ONO 1005,7
20.05.2019 15:00:00 18,1 11 6 O 1005,7
20.05.2019 14:00:00 18,9 12 6 ONO 1005,3
20.05.2019 13:00:00 19,4 7 4 ESE 1005,1
20.05.2019 12:00:00 17,2 6 3 E 1005,2
20.05.2019 11:00:00 16,0 4 2 ENE 1005,3
20.05.2019 10:00:00 13,9 5 3 ESE 1005,4
20.05.2019 09:00:00 12,5 3 1 SSO 1005,1
20.05.2019 08:00:00 11,9 6 4 OSO 1004,7
20.05.2019 07:00:00 11,5 5 3 SO 1004,6
20.05.2019 06:00:00 11,5 4 2 O 1004,5
20.05.2019 05:00:00 11,6 3 2 O 1004,7
20.05.2019 04:00:00 11,7 - - - 1004,8
20.05.2019 03:00:00 11,8 4 2 SSO 1004,8
20.05.2019 02:00:00 12,2 0 0 ENE 1005,0
20.05.2019 01:00:00 12,5 3 1 OSO 1005,2
20.05.2019 00:00:00 12,5 3 1 NNO 1005,4
19.05.2019 23:00:00 12,7 3 2 NO 1005,5
19.05.2019 22:00:00 12,7 3 1 NNO 1005,4
19.05.2019 21:00:00 12,9 3 2 NO 1005,1
19.05.2019 20:00:00 13,0 3 2 NO 1004,9
19.05.2019 19:00:00 13,3 5 3 N 1004,7
19.05.2019 18:00:00 13,5 11 6 N 1004,7
19.05.2019 17:00:00 14,0 11 6 N 1004,4
19.05.2019 16:00:00 16,3 8 4 NNO 1004,2
19.05.2019 15:00:00 15,9 9 5 NNO 1004,1
19.05.2019 14:00:00 14,6 8 5 N 1004,3
19.05.2019 13:00:00 13,8 8 4 N 1004,4
19.05.2019 12:00:00 14,8 10 6 NNO 1004,3
19.05.2019 11:00:00 14,0 9 5 NNO 1004,4
19.05.2019 10:00:00 12,7 6 3 NO 1004,6
19.05.2019 09:00:00 11,9 7 4 NNO 1004,7
19.05.2019 08:00:00 11,4 5 3 NO 1004,6

tt = Temperatura
ff = velocità del vento
dd = direzione del vento
ppp = reduced air pressure

Stazioni seguenti

WeatherPro
AMSI
MeteoEarth